MAS2743 WBGB-WMKK

Flight info

Callsign MAS2743
Flight time 1h 48m
Altitude 28000
Route ADGAB2C ADGAB W447 KAMIN G334 SAROX SAROX1J
Aircraft B738/M-SDE2E3FGHIRWXY/LB1

Departure

Time 2026-04-25 08:00
Airport Bintulu Airport (WBGB)

Arrival

Time 2026-04-25 09:49
Airport Kuala Lumpur International Airport (WMKK)
Time Latitude Longitude Altitude Speed Heading
2026-04-25 07:28 3.12326 113.02319 138 ft 0 kts 79°
2026-04-25 07:49 3.12326 113.02318 138 ft 0 kts 79°
2026-04-25 07:50 3.12323 113.02304 137 ft 2 kts 79°
2026-04-25 07:50 3.12322 113.02289 137 ft 2 kts 98°
2026-04-25 07:50 3.12325 113.02274 136 ft 2 kts 111°
2026-04-25 07:50 3.12332 113.02261 136 ft 2 kts 126°
2026-04-25 07:51 3.12342 113.02250 136 ft 2 kts 141°
2026-04-25 07:51 3.12355 113.02242 136 ft 2 kts 156°
2026-04-25 07:51 3.12364 113.02238 136 ft 0 kts 166°
2026-04-25 07:51 3.12370 113.02238 136 ft 0 kts 167°
2026-04-25 07:56 3.12335 113.02245 135 ft 14 kts 171°
2026-04-25 07:56 3.12226 113.02203 130 ft 17 kts 194°
2026-04-25 07:56 3.12100 113.02216 127 ft 18 kts 171°
2026-04-25 07:56 3.12000 113.02166 123 ft 18 kts 256°
2026-04-25 07:57 3.11919 113.02083 117 ft 19 kts 181°
2026-04-25 07:57 3.11793 113.02100 121 ft 16 kts 172°
2026-04-25 07:57 3.11704 113.02119 127 ft 9 kts 164°
2026-04-25 07:57 3.11655 113.02132 131 ft 8 kts 165°
2026-04-25 07:58 3.11555 113.02160 135 ft 21 kts 161°
2026-04-25 07:58 3.11405 113.02193 140 ft 20 kts 170°
2026-04-25 07:58 3.11293 113.02228 141 ft 14 kts 145°
2026-04-25 07:58 3.11237 113.02237 139 ft 7 kts 305°
2026-04-25 07:59 3.11266 113.02226 139 ft 0 kts 344°
2026-04-25 07:59 3.11321 113.02213 142 ft 36 kts 348°
2026-04-25 08:00 3.11878 113.02093 119 ft 124 kts 347°
2026-04-25 08:00 3.12955 113.01845 248 ft 182 kts 349°
2026-04-25 08:00 3.14273 113.01611 983 ft 201 kts 349°
2026-04-25 08:00 3.15660 113.01292 1929 ft 209 kts 345°
2026-04-25 08:01 3.17106 113.00893 2550 ft 228 kts 345°
2026-04-25 08:01 3.18712 113.00432 3129 ft 250 kts 345°
2026-04-25 08:01 3.20350 112.99720 3751 ft 270 kts 324°
2026-04-25 08:01 3.21497 112.98222 4504 ft 283 kts 291°
2026-04-25 08:02 3.21678 112.96283 5384 ft 289 kts 258°
2026-04-25 08:02 3.20822 112.94485 6315 ft 290 kts 230°
2026-04-25 08:02 3.19446 112.92998 7201 ft 295 kts 223°
2026-04-25 08:02 3.17986 112.91573 8035 ft 301 kts 223°
2026-04-25 08:03 3.16581 112.89984 8850 ft 309 kts 232°
2026-04-25 08:03 3.15437 112.88145 9690 ft 317 kts 244°
2026-04-25 08:03 3.14652 112.86083 10492 ft 323 kts 254°
2026-04-25 08:03 3.14110 112.83852 11092 ft 337 kts 259°
2026-04-25 08:04 3.13668 112.81493 11625 ft 352 kts 261°
2026-04-25 08:04 3.13244 112.79069 12187 ft 364 kts 261°
2026-04-25 08:04 3.12789 112.76544 12963 ft 369 kts 260°
2026-04-25 08:04 3.12315 112.74024 13752 ft 373 kts 259°
2026-04-25 08:05 3.11822 112.71480 14482 ft 378 kts 259°
2026-04-25 08:05 3.11315 112.68891 15174 ft 383 kts 259°
2026-04-25 08:05 3.10800 112.66280 15873 ft 386 kts 259°
2026-04-25 08:05 3.10279 112.63641 16541 ft 390 kts 259°
2026-04-25 08:06 3.09751 112.60962 17178 ft 395 kts 258°
2026-04-25 08:06 3.09256 112.58289 17803 ft 399 kts 261°
2026-04-25 08:06 3.08836 112.55541 18429 ft 403 kts 262°
2026-04-25 08:06 3.08460 112.52758 19037 ft 406 kts 263°
2026-04-25 08:07 3.08094 112.49951 19623 ft 410 kts 263°
2026-04-25 08:07 3.07725 112.47126 20218 ft 413 kts 263°
2026-04-25 08:07 3.07344 112.44246 20761 ft 417 kts 263°
2026-04-25 08:07 3.06959 112.41377 21337 ft 420 kts 263°
2026-04-25 08:08 3.06569 112.38512 21854 ft 423 kts 263°
2026-04-25 08:08 3.06169 112.35583 22345 ft 428 kts 263°
2026-04-25 08:08 3.05761 112.32625 22886 ft 430 kts 263°
2026-04-25 08:08 3.05349 112.29652 23404 ft 433 kts 262°
2026-04-25 08:09 3.04933 112.26653 23967 ft 435 kts 262°
2026-04-25 08:09 3.04515 112.23655 24458 ft 438 kts 262°
2026-04-25 08:09 3.04096 112.20641 25010 ft 439 kts 262°
2026-04-25 08:09 3.03680 112.17654 25722 ft 435 kts 262°
2026-04-25 08:10 3.03267 112.14681 26396 ft 432 kts 262°
2026-04-25 08:10 3.02855 112.11728 27024 ft 429 kts 262°
2026-04-25 08:10 3.02443 112.08778 27579 ft 428 kts 262°
2026-04-25 08:10 3.02030 112.05829 27796 ft 432 kts 262°
2026-04-25 08:11 3.01619 112.02881 27792 ft 430 kts 262°
2026-04-25 08:11 3.01203 111.99912 27786 ft 426 kts 262°
2026-04-25 08:11 3.00793 111.96988 27784 ft 427 kts 262°
2026-04-25 08:11 3.00381 111.94052 27784 ft 427 kts 262°
2026-04-25 08:12 2.99968 111.91103 27781 ft 428 kts 262°
2026-04-25 08:12 2.99560 111.88183 27781 ft 427 kts 262°
2026-04-25 08:12 2.99148 111.85232 27785 ft 427 kts 262°
2026-04-25 08:12 2.98741 111.82313 27785 ft 427 kts 262°
2026-04-25 08:13 2.98327 111.79353 27783 ft 429 kts 262°
2026-04-25 08:13 2.97917 111.76419 27782 ft 429 kts 262°
2026-04-25 08:13 2.97505 111.73483 27786 ft 428 kts 262°
2026-04-25 08:14 2.96678 111.67570 27787 ft 427 kts 262°
2026-04-25 08:14 2.96271 111.64664 27788 ft 427 kts 262°
2026-04-25 08:14 2.95858 111.61710 27791 ft 427 kts 262°
2026-04-25 08:14 2.95444 111.58755 27794 ft 426 kts 262°
2026-04-25 08:15 2.95038 111.55854 27796 ft 426 kts 262°
2026-04-25 08:15 2.94626 111.52915 27797 ft 426 kts 262°
2026-04-25 08:15 2.94214 111.49976 27799 ft 426 kts 262°
2026-04-25 08:15 2.93806 111.47070 27799 ft 427 kts 262°
2026-04-25 08:16 2.93391 111.44106 27797 ft 428 kts 262°
2026-04-25 08:16 2.92983 111.41197 27797 ft 427 kts 262°
2026-04-25 08:16 2.92567 111.38231 27802 ft 428 kts 262°
2026-04-25 08:16 2.92158 111.35311 27805 ft 428 kts 262°
2026-04-25 08:17 2.91742 111.32348 27809 ft 427 kts 262°
2026-04-25 08:17 2.91334 111.29441 27815 ft 426 kts 262°
2026-04-25 08:17 2.90920 111.26489 27814 ft 426 kts 262°
2026-04-25 08:17 2.90512 111.23581 27812 ft 426 kts 262°
2026-04-25 08:18 2.90102 111.20654 27809 ft 426 kts 262°
2026-04-25 08:18 2.89688 111.17712 27806 ft 426 kts 262°
2026-04-25 08:18 2.89278 111.14788 27802 ft 426 kts 262°
2026-04-25 08:18 2.88867 111.11851 27801 ft 427 kts 262°
2026-04-25 08:19 2.88456 111.08930 27803 ft 426 kts 262°
2026-04-25 08:19 2.88042 111.05989 27801 ft 427 kts 262°
2026-04-25 08:19 2.87626 111.03034 27802 ft 427 kts 262°
2026-04-25 08:19 2.87215 111.00115 27800 ft 427 kts 262°
2026-04-25 08:20 2.86801 110.97171 27803 ft 426 kts 262°
2026-04-25 08:20 2.86390 110.94244 27805 ft 427 kts 262°
2026-04-25 08:20 2.85979 110.91316 27802 ft 426 kts 262°
2026-04-25 08:20 2.85569 110.88406 27802 ft 426 kts 262°
2026-04-25 08:21 2.85156 110.85473 27802 ft 426 kts 262°
2026-04-25 08:21 2.84743 110.82537 27802 ft 426 kts 262°
2026-04-25 08:21 2.84329 110.79597 27802 ft 426 kts 262°
2026-04-25 08:21 2.83921 110.76695 27802 ft 427 kts 262°
2026-04-25 08:22 2.83506 110.73748 27802 ft 426 kts 262°
2026-04-25 08:22 2.83094 110.70822 27803 ft 426 kts 262°
2026-04-25 08:22 2.82684 110.67908 27803 ft 426 kts 262°
2026-04-25 08:22 2.82269 110.64960 27802 ft 426 kts 263°
2026-04-25 08:23 2.81858 110.62047 27802 ft 426 kts 263°
2026-04-25 08:23 2.81447 110.59132 27802 ft 426 kts 263°
2026-04-25 08:23 2.81029 110.56180 27802 ft 426 kts 263°
2026-04-25 08:23 2.80613 110.53236 27802 ft 426 kts 263°
2026-04-25 08:24 2.80201 110.50310 27802 ft 426 kts 263°
2026-04-25 08:24 2.79787 110.47379 27802 ft 427 kts 263°
2026-04-25 08:24 2.79379 110.44486 27801 ft 426 kts 263°
2026-04-25 08:24 2.78964 110.41550 27802 ft 426 kts 263°
2026-04-25 08:25 2.78550 110.38618 27802 ft 426 kts 263°
2026-04-25 08:25 2.78136 110.35676 27802 ft 426 kts 263°
2026-04-25 08:25 2.77724 110.32747 27802 ft 426 kts 263°
2026-04-25 08:25 2.77313 110.29832 27802 ft 426 kts 263°
2026-04-25 08:26 2.76898 110.26886 27801 ft 427 kts 263°
2026-04-25 08:26 2.76484 110.23953 27802 ft 427 kts 263°
2026-04-25 08:26 2.76069 110.21016 27802 ft 427 kts 263°
2026-04-25 08:26 2.75656 110.18095 27802 ft 427 kts 263°
2026-04-25 08:27 2.75245 110.15180 27802 ft 426 kts 263°
2026-04-25 08:27 2.74830 110.12236 27802 ft 426 kts 263°
2026-04-25 08:27 2.74417 110.09316 27803 ft 425 kts 263°
2026-04-25 08:27 2.74004 110.06403 27807 ft 425 kts 263°
2026-04-25 08:28 2.73588 110.03462 27813 ft 425 kts 263°
2026-04-25 08:28 2.73179 110.00567 27819 ft 425 kts 263°
2026-04-25 08:28 2.72767 109.97646 27821 ft 426 kts 263°
2026-04-25 08:28 2.72352 109.94711 27821 ft 426 kts 263°
2026-04-25 08:29 2.71936 109.91763 27822 ft 426 kts 263°
2026-04-25 08:29 2.71524 109.88848 27823 ft 426 kts 263°
2026-04-25 08:29 2.71110 109.85926 27823 ft 426 kts 263°
2026-04-25 08:29 2.70696 109.83008 27823 ft 426 kts 263°
2026-04-25 08:30 2.70281 109.80080 27824 ft 426 kts 263°
2026-04-25 08:30 2.69862 109.77128 27823 ft 425 kts 263°
2026-04-25 08:30 2.69449 109.74216 27823 ft 425 kts 263°
2026-04-25 08:30 2.69035 109.71294 27823 ft 425 kts 263°
2026-04-25 08:31 2.68625 109.68397 27823 ft 425 kts 263°
2026-04-25 08:31 2.68210 109.65466 27823 ft 425 kts 263°
2026-04-25 08:31 2.67793 109.62526 27824 ft 425 kts 263°
2026-04-25 08:31 2.67378 109.59596 27823 ft 426 kts 263°
2026-04-25 08:32 2.66964 109.56680 27824 ft 426 kts 263°
2026-04-25 08:32 2.66552 109.53783 27822 ft 425 kts 263°
2026-04-25 08:32 2.66132 109.50819 27822 ft 426 kts 263°
2026-04-25 08:32 2.65719 109.47897 27825 ft 427 kts 263°
2026-04-25 08:33 2.65302 109.44961 27824 ft 427 kts 263°
2026-04-25 08:33 2.64886 109.42036 27823 ft 426 kts 263°
2026-04-25 08:33 2.64472 109.39114 27821 ft 426 kts 263°
2026-04-25 08:33 2.64055 109.36179 27824 ft 426 kts 263°
2026-04-25 08:34 2.63640 109.33260 27823 ft 425 kts 263°
2026-04-25 08:34 2.63229 109.30372 27823 ft 427 kts 263°
2026-04-25 08:34 2.62807 109.27402 27821 ft 426 kts 263°
2026-04-25 08:34 2.62395 109.24498 27817 ft 426 kts 263°
2026-04-25 08:35 2.61980 109.21574 27812 ft 426 kts 263°
2026-04-25 08:35 2.61565 109.18648 27808 ft 427 kts 263°
2026-04-25 08:35 2.61151 109.15715 27805 ft 427 kts 263°
2026-04-25 08:35 2.60737 109.12785 27805 ft 427 kts 263°
2026-04-25 08:36 2.60322 109.09863 27804 ft 426 kts 263°
2026-04-25 08:36 2.59899 109.06903 27803 ft 425 kts 263°
2026-04-25 08:36 2.59483 109.03982 27806 ft 427 kts 263°
2026-04-25 08:36 2.59073 109.01093 27803 ft 426 kts 263°
2026-04-25 08:37 2.58651 108.98126 27805 ft 426 kts 263°
2026-04-25 08:37 2.58242 108.95203 27805 ft 425 kts 264°
2026-04-25 08:37 2.57940 108.92279 27805 ft 426 kts 268°
2026-04-25 08:37 2.57876 108.89320 27805 ft 426 kts 272°
2026-04-25 08:38 2.57959 108.86377 27805 ft 424 kts 274°
2026-04-25 08:38 2.58108 108.83457 27806 ft 425 kts 275°
2026-04-25 08:38 2.58281 108.80481 27806 ft 424 kts 275°
2026-04-25 08:38 2.58448 108.77542 27804 ft 424 kts 275°
2026-04-25 08:39 2.58603 108.74631 27804 ft 424 kts 275°
2026-04-25 08:39 2.58752 108.71685 27803 ft 424 kts 275°
2026-04-25 08:39 2.58893 108.68748 27801 ft 422 kts 274°
2026-04-25 08:39 2.59027 108.65836 27802 ft 423 kts 274°
2026-04-25 08:40 2.59160 108.62894 27802 ft 424 kts 274°
2026-04-25 08:40 2.59426 108.56774 27804 ft 424 kts 274°
2026-04-25 08:40 2.59550 108.53828 27807 ft 422 kts 274°
2026-04-25 08:41 2.59674 108.50900 27813 ft 423 kts 274°
2026-04-25 08:41 2.59797 108.47974 27816 ft 423 kts 274°
2026-04-25 08:41 2.59922 108.45024 27819 ft 423 kts 274°
2026-04-25 08:41 2.60048 108.42094 27820 ft 423 kts 274°
2026-04-25 08:42 2.60172 108.39185 27822 ft 422 kts 274°
2026-04-25 08:42 2.60299 108.36249 27822 ft 422 kts 274°
2026-04-25 08:42 2.60422 108.33324 27823 ft 423 kts 274°
2026-04-25 08:42 2.60544 108.30397 27823 ft 423 kts 274°
2026-04-25 08:43 2.60665 108.27472 27823 ft 423 kts 274°
2026-04-25 08:43 2.60789 108.24521 27823 ft 424 kts 274°
2026-04-25 08:43 2.60915 108.21576 27823 ft 423 kts 274°
2026-04-25 08:43 2.61040 108.18645 27824 ft 424 kts 274°
2026-04-25 08:44 2.61164 108.15717 27823 ft 424 kts 274°
2026-04-25 08:44 2.61285 108.12789 27823 ft 424 kts 274°
2026-04-25 08:44 2.61409 108.09837 27822 ft 425 kts 274°
2026-04-25 08:44 2.61531 108.06891 27823 ft 424 kts 274°
2026-04-25 08:45 2.61652 108.03959 27823 ft 422 kts 274°
2026-04-25 08:45 2.61771 108.01034 27823 ft 420 kts 274°
2026-04-25 08:45 2.61891 107.98123 27823 ft 422 kts 274°
2026-04-25 08:45 2.62014 107.95204 27823 ft 423 kts 274°
2026-04-25 08:46 2.62137 107.92282 27823 ft 423 kts 274°
2026-04-25 08:46 2.62261 107.89355 27822 ft 423 kts 274°
2026-04-25 08:46 2.62387 107.86392 27822 ft 423 kts 274°
2026-04-25 08:46 2.62512 107.83480 27823 ft 423 kts 274°
2026-04-25 08:47 2.62638 107.80525 27823 ft 422 kts 274°
2026-04-25 08:47 2.62760 107.77614 27823 ft 424 kts 274°
2026-04-25 08:47 2.62882 107.74686 27822 ft 423 kts 274°
2026-04-25 08:47 2.63003 107.71735 27823 ft 422 kts 274°
2026-04-25 08:48 2.63122 107.68848 27824 ft 421 kts 274°
2026-04-25 08:48 2.63243 107.65904 27823 ft 420 kts 274°
2026-04-25 08:48 2.63362 107.62995 27822 ft 421 kts 274°
2026-04-25 08:48 2.63483 107.60094 27822 ft 422 kts 274°
2026-04-25 08:49 2.63605 107.57152 27822 ft 422 kts 274°
2026-04-25 08:49 2.63726 107.54219 27823 ft 423 kts 274°
2026-04-25 08:49 2.63848 107.51279 27823 ft 423 kts 274°
2026-04-25 08:49 2.63969 107.48347 27823 ft 423 kts 274°
2026-04-25 08:50 2.64089 107.45434 27823 ft 422 kts 274°
2026-04-25 08:50 2.64211 107.42506 27823 ft 423 kts 274°
2026-04-25 08:50 2.64335 107.39590 27823 ft 423 kts 274°
2026-04-25 08:50 2.64458 107.36661 27821 ft 421 kts 274°
2026-04-25 08:51 2.64582 107.33709 27822 ft 422 kts 274°
2026-04-25 08:51 2.64703 107.30823 27821 ft 420 kts 274°
2026-04-25 08:51 2.64825 107.27896 27821 ft 421 kts 274°
2026-04-25 08:51 2.64945 107.24979 27818 ft 422 kts 274°
2026-04-25 08:52 2.65069 107.22039 27819 ft 422 kts 274°
2026-04-25 08:52 2.65193 107.19102 27820 ft 422 kts 274°
2026-04-25 08:52 2.65313 107.16203 27817 ft 422 kts 274°
2026-04-25 08:52 2.65434 107.13266 27817 ft 423 kts 274°
2026-04-25 08:53 2.65554 107.10328 27816 ft 423 kts 274°
2026-04-25 08:53 2.65674 107.07394 27815 ft 422 kts 274°
2026-04-25 08:53 2.65795 107.04484 27814 ft 421 kts 274°
2026-04-25 08:53 2.65915 107.01540 27814 ft 422 kts 274°
2026-04-25 08:54 2.66035 106.98623 27816 ft 420 kts 274°
2026-04-25 08:54 2.66156 106.95730 27815 ft 418 kts 274°
2026-04-25 08:54 2.66275 106.92831 27815 ft 420 kts 274°
2026-04-25 08:54 2.66395 106.89930 27818 ft 421 kts 274°
2026-04-25 08:55 2.66516 106.86979 27820 ft 421 kts 274°
2026-04-25 08:55 2.66636 106.84077 27821 ft 421 kts 274°
2026-04-25 08:55 2.66757 106.81165 27822 ft 422 kts 274°
2026-04-25 08:55 2.66877 106.78245 27823 ft 422 kts 274°
2026-04-25 08:56 2.66998 106.75319 27821 ft 422 kts 274°
2026-04-25 08:56 2.67116 106.72398 27822 ft 421 kts 274°
2026-04-25 08:56 2.67233 106.69479 27823 ft 421 kts 274°
2026-04-25 08:56 2.67353 106.66567 27822 ft 420 kts 274°
2026-04-25 08:57 2.67470 106.63651 27822 ft 420 kts 274°
2026-04-25 08:57 2.67587 106.60746 27822 ft 419 kts 274°
2026-04-25 08:57 2.67708 106.57800 27822 ft 420 kts 274°
2026-04-25 08:57 2.67828 106.54894 27823 ft 419 kts 274°
2026-04-25 08:58 2.67947 106.51995 27823 ft 419 kts 274°
2026-04-25 08:58 2.68067 106.49101 27822 ft 420 kts 274°
2026-04-25 08:58 2.68187 106.46201 27823 ft 419 kts 274°
2026-04-25 08:58 2.68306 106.43285 27821 ft 419 kts 274°
2026-04-25 08:59 2.68424 106.40376 27823 ft 420 kts 274°
2026-04-25 08:59 2.68543 106.37443 27823 ft 420 kts 274°
2026-04-25 08:59 2.68659 106.34545 27821 ft 419 kts 273°
2026-04-25 08:59 2.68774 106.31655 27822 ft 418 kts 274°
2026-04-25 09:00 2.68891 106.28740 27823 ft 421 kts 273°
2026-04-25 09:00 2.69008 106.25818 27824 ft 419 kts 274°
2026-04-25 09:00 2.69125 106.22907 27821 ft 419 kts 273°
2026-04-25 09:00 2.69243 106.20007 27822 ft 418 kts 274°
2026-04-25 09:01 2.69360 106.17107 27823 ft 419 kts 274°
2026-04-25 09:01 2.69478 106.14198 27823 ft 419 kts 274°
2026-04-25 09:01 2.69598 106.11308 27822 ft 420 kts 274°
2026-04-25 09:01 2.69718 106.08385 27820 ft 420 kts 274°
2026-04-25 09:02 2.69836 106.05494 27823 ft 420 kts 274°
2026-04-25 09:02 2.69953 106.02570 27823 ft 420 kts 274°
2026-04-25 09:02 2.70071 105.99659 27823 ft 419 kts 274°
2026-04-25 09:02 2.70279 105.96756 27823 ft 419 kts 276°
2026-04-25 09:03 2.70589 105.93881 27824 ft 420 kts 278°
2026-04-25 09:03 2.70946 105.90993 27823 ft 419 kts 278°
2026-04-25 09:03 2.71317 105.88071 27822 ft 420 kts 278°
2026-04-25 09:03 2.71675 105.85198 27822 ft 417 kts 278°
2026-04-25 09:04 2.72030 105.82318 27823 ft 417 kts 278°
2026-04-25 09:04 2.72374 105.79463 27824 ft 420 kts 278°
2026-04-25 09:04 2.72717 105.76537 27823 ft 420 kts 278°
2026-04-25 09:04 2.73048 105.73677 27826 ft 418 kts 278°
2026-04-25 09:05 2.73365 105.70757 27821 ft 417 kts 277°
2026-04-25 09:05 2.73634 105.67886 27824 ft 419 kts 276°
2026-04-25 09:05 2.73887 105.64973 27822 ft 419 kts 276°
2026-04-25 09:05 2.74129 105.62120 27823 ft 417 kts 276°
2026-04-25 09:06 2.74376 105.59204 27824 ft 419 kts 276°
2026-04-25 09:06 2.74624 105.56319 27823 ft 419 kts 276°
2026-04-25 09:06 2.74874 105.53404 27823 ft 419 kts 276°
2026-04-25 09:06 2.75123 105.50514 27824 ft 419 kts 276°
2026-04-25 09:07 2.75374 105.47619 27823 ft 419 kts 276°
2026-04-25 09:07 2.75629 105.44726 27824 ft 418 kts 276°
2026-04-25 09:07 2.75886 105.41835 27823 ft 419 kts 276°
2026-04-25 09:07 2.76143 105.38944 27821 ft 417 kts 276°
2026-04-25 09:08 2.76397 105.36066 27825 ft 418 kts 276°
2026-04-25 09:08 2.76654 105.33152 27824 ft 419 kts 276°
2026-04-25 09:08 2.76909 105.30239 27822 ft 419 kts 276°
2026-04-25 09:08 2.77161 105.27357 27823 ft 419 kts 276°
2026-04-25 09:09 2.77415 105.24459 27824 ft 420 kts 276°
2026-04-25 09:09 2.77670 105.21558 27823 ft 419 kts 276°
2026-04-25 09:09 2.77929 105.18650 27824 ft 420 kts 276°
2026-04-25 09:09 2.78201 105.15779 27824 ft 420 kts 277°
2026-04-25 09:10 2.78547 105.12853 27821 ft 419 kts 278°
2026-04-25 09:10 2.78926 105.10017 27824 ft 416 kts 279°
2026-04-25 09:10 2.79328 105.07147 27822 ft 418 kts 279°
2026-04-25 09:10 2.79739 105.04250 27819 ft 418 kts 279°
2026-04-25 09:11 2.80542 104.98505 27816 ft 418 kts 279°
2026-04-25 09:11 2.80933 104.95644 27816 ft 418 kts 279°
2026-04-25 09:11 2.81324 104.92757 27819 ft 417 kts 279°
2026-04-25 09:12 2.81709 104.89903 27819 ft 417 kts 279°
2026-04-25 09:12 2.82096 104.87025 27817 ft 416 kts 279°
2026-04-25 09:12 2.82474 104.84182 27817 ft 416 kts 279°
2026-04-25 09:12 2.82856 104.81299 27820 ft 417 kts 279°
2026-04-25 09:13 2.83233 104.78453 27818 ft 416 kts 279°
2026-04-25 09:13 2.83614 104.75583 27817 ft 416 kts 279°
2026-04-25 09:13 2.83998 104.72691 27817 ft 418 kts 279°
2026-04-25 09:13 2.84379 104.69835 27817 ft 417 kts 279°
2026-04-25 09:14 2.84763 104.66956 27819 ft 416 kts 279°
2026-04-25 09:14 2.85144 104.64098 27821 ft 416 kts 279°
2026-04-25 09:14 2.85524 104.61260 27821 ft 417 kts 279°
2026-04-25 09:14 2.85905 104.58396 27822 ft 415 kts 279°
2026-04-25 09:15 2.86288 104.55536 27822 ft 415 kts 279°
2026-04-25 09:15 2.86668 104.52682 27820 ft 415 kts 279°
2026-04-25 09:15 2.87045 104.49831 27824 ft 414 kts 279°
2026-04-25 09:15 2.87421 104.46993 27821 ft 414 kts 279°
2026-04-25 09:16 2.87760 104.44102 27820 ft 416 kts 278°
2026-04-25 09:16 2.88042 104.41252 27821 ft 416 kts 277°
2026-04-25 09:16 2.88305 104.38364 27820 ft 416 kts 277°
2026-04-25 09:16 2.88561 104.35494 27821 ft 416 kts 277°
2026-04-25 09:17 2.89084 104.29748 27822 ft 415 kts 277°
2026-04-25 09:17 2.89350 104.26865 27820 ft 415 kts 277°
2026-04-25 09:17 2.89617 104.24007 27823 ft 415 kts 277°
2026-04-25 09:18 2.89888 104.21146 27821 ft 415 kts 277°
2026-04-25 09:18 2.90160 104.18274 27823 ft 413 kts 277°
2026-04-25 09:18 2.90427 104.15444 27820 ft 413 kts 277°
2026-04-25 09:18 2.90701 104.12571 27822 ft 415 kts 277°
2026-04-25 09:19 2.90892 104.09688 27821 ft 417 kts 273°
2026-04-25 09:19 2.90864 104.06808 27821 ft 415 kts 269°
2026-04-25 09:19 2.90703 104.03928 27819 ft 416 kts 268°
2026-04-25 09:19 2.90487 104.01046 27824 ft 418 kts 267°
2026-04-25 09:20 2.90255 103.98128 27819 ft 418 kts 267°
2026-04-25 09:20 2.90030 103.95262 27820 ft 417 kts 267°
2026-04-25 09:20 2.89812 103.92367 27819 ft 415 kts 267°
2026-04-25 09:20 2.89605 103.89490 27819 ft 416 kts 267°
2026-04-25 09:21 2.89406 103.86626 27819 ft 415 kts 268°
2026-04-25 09:21 2.89213 103.83759 27817 ft 416 kts 267°
2026-04-25 09:21 2.89020 103.80868 27816 ft 415 kts 268°
2026-04-25 09:21 2.88828 103.77993 27817 ft 416 kts 268°
2026-04-25 09:22 2.88635 103.75090 27819 ft 416 kts 268°
2026-04-25 09:22 2.88445 103.72233 27819 ft 417 kts 268°
2026-04-25 09:22 2.88253 103.69325 27812 ft 415 kts 268°
2026-04-25 09:22 2.88065 103.66473 27815 ft 416 kts 267°
2026-04-25 09:23 2.87870 103.63579 27815 ft 415 kts 267°
2026-04-25 09:23 2.87654 103.60689 27814 ft 415 kts 267°
2026-04-25 09:23 2.87427 103.57857 27812 ft 414 kts 266°
2026-04-25 09:23 2.87189 103.54964 27813 ft 413 kts 266°
2026-04-25 09:24 2.86954 103.52105 27813 ft 414 kts 266°
2026-04-25 09:24 2.86637 103.49251 27811 ft 415 kts 259°
2026-04-25 09:24 2.85848 103.46509 27817 ft 415 kts 251°
2026-04-25 09:24 2.84754 103.43813 27825 ft 414 kts 247°
2026-04-25 09:25 2.83566 103.41209 27829 ft 416 kts 245°
2026-04-25 09:25 2.82331 103.38580 27833 ft 415 kts 245°
2026-04-25 09:25 2.81115 103.35973 27836 ft 414 kts 246°
2026-04-25 09:25 2.79926 103.33370 27840 ft 416 kts 246°
2026-04-25 09:26 2.78748 103.30733 27848 ft 415 kts 247°
2026-04-25 09:26 2.77573 103.28060 27852 ft 415 kts 247°
2026-04-25 09:26 2.76432 103.25440 27855 ft 415 kts 247°
2026-04-25 09:26 2.75300 103.22822 27687 ft 409 kts 247°
2026-04-25 09:27 2.74163 103.20185 27090 ft 410 kts 247°
2026-04-25 09:27 2.73032 103.17560 26313 ft 416 kts 247°
2026-04-25 09:27 2.71893 103.14911 25509 ft 421 kts 247°
2026-04-25 09:27 2.70729 103.12204 24787 ft 424 kts 247°
2026-04-25 09:28 2.69574 103.09519 24134 ft 424 kts 247°
2026-04-25 09:28 2.68411 103.06815 23657 ft 419 kts 247°
2026-04-25 09:28 2.67271 103.04162 23155 ft 416 kts 247°
2026-04-25 09:28 2.66180 103.01519 22640 ft 413 kts 250°
2026-04-25 09:29 2.65260 102.98790 22099 ft 411 kts 253°
2026-04-25 09:29 2.64476 102.96085 21662 ft 407 kts 255°
2026-04-25 09:29 2.63733 102.93378 21166 ft 404 kts 255°
2026-04-25 09:29 2.62988 102.90651 20652 ft 402 kts 255°
2026-04-25 09:30 2.62252 102.88003 20282 ft 395 kts 255°
2026-04-25 09:30 2.61518 102.85402 19966 ft 382 kts 254°
2026-04-25 09:30 2.60797 102.82890 19682 ft 369 kts 254°
2026-04-25 09:30 2.60087 102.80446 19221 ft 363 kts 254°
2026-04-25 09:31 2.59382 102.78042 18801 ft 361 kts 253°
2026-04-25 09:31 2.58678 102.75659 18394 ft 359 kts 253°
2026-04-25 09:31 2.57966 102.73257 18012 ft 356 kts 253°
2026-04-25 09:31 2.57268 102.70905 17631 ft 354 kts 253°
2026-04-25 09:32 2.56569 102.68554 17207 ft 353 kts 253°
2026-04-25 09:32 2.55872 102.66211 16855 ft 349 kts 253°
2026-04-25 09:32 2.55190 102.63911 16475 ft 347 kts 253°
2026-04-25 09:32 2.54506 102.61605 16094 ft 344 kts 253°
2026-04-25 09:33 2.53830 102.59334 15707 ft 342 kts 253°
2026-04-25 09:33 2.53158 102.57068 15347 ft 339 kts 253°
2026-04-25 09:33 2.52484 102.54802 14975 ft 337 kts 253°
2026-04-25 09:33 2.51811 102.52545 14434 ft 339 kts 253°
2026-04-25 09:34 2.51152 102.50339 14228 ft 330 kts 253°
2026-04-25 09:34 2.50501 102.48153 13821 ft 326 kts 253°
2026-04-25 09:34 2.49857 102.45992 13441 ft 325 kts 253°
2026-04-25 09:34 2.49215 102.43837 13075 ft 322 kts 253°
2026-04-25 09:35 2.48577 102.41693 12700 ft 320 kts 253°
2026-04-25 09:35 2.47944 102.39569 12321 ft 319 kts 253°
2026-04-25 09:35 2.47309 102.37435 11954 ft 317 kts 253°
2026-04-25 09:35 2.46686 102.35342 11584 ft 316 kts 253°
2026-04-25 09:36 2.46065 102.33253 11197 ft 314 kts 253°
2026-04-25 09:36 2.45447 102.31169 10850 ft 313 kts 253°
2026-04-25 09:36 2.44839 102.29112 10659 ft 305 kts 253°
2026-04-25 09:36 2.44247 102.27099 10455 ft 298 kts 255°
2026-04-25 09:37 2.43991 102.25035 10101 ft 297 kts 272°
2026-04-25 09:37 2.44178 102.23005 9755 ft 296 kts 279°
2026-04-25 09:37 2.44456 102.20978 9441 ft 294 kts 278°
2026-04-25 09:37 2.44697 102.18952 9171 ft 289 kts 277°
2026-04-25 09:38 2.44885 102.16982 8797 ft 287 kts 276°
2026-04-25 09:38 2.45048 102.14973 8415 ft 285 kts 276°
2026-04-25 09:38 2.45185 102.13063 8287 ft 269 kts 275°
2026-04-25 09:38 2.45312 102.11238 8145 ft 256 kts 275°
2026-04-25 09:39 2.45432 102.09521 8033 ft 242 kts 276°
2026-04-25 09:39 2.45547 102.07893 7938 ft 231 kts 276°
2026-04-25 09:39 2.45658 102.06300 7757 ft 226 kts 276°
2026-04-25 09:40 2.45878 102.03183 7227 ft 226 kts 276°
2026-04-25 09:40 2.45990 102.01603 6992 ft 224 kts 276°
2026-04-25 09:40 2.46102 102.00046 6740 ft 224 kts 276°
2026-04-25 09:40 2.46213 101.98516 6503 ft 223 kts 276°
2026-04-25 09:41 2.46324 101.96978 6260 ft 222 kts 276°
2026-04-25 09:41 2.46435 101.95445 6025 ft 221 kts 276°
2026-04-25 09:41 2.46546 101.93915 5782 ft 220 kts 276°
2026-04-25 09:41 2.46656 101.92385 5536 ft 220 kts 276°
2026-04-25 09:42 2.46767 101.90859 5330 ft 217 kts 276°
2026-04-25 09:42 2.46897 101.89360 5188 ft 216 kts 283°
2026-04-25 09:42 2.47480 101.88050 5010 ft 205 kts 314°
2026-04-25 09:42 2.48514 101.87122 4960 ft 194 kts 326°
2026-04-25 09:43 2.49605 101.86315 4947 ft 197 kts 328°
2026-04-25 09:43 2.50743 101.85523 4775 ft 200 kts 329°
2026-04-25 09:43 2.51911 101.84739 4459 ft 203 kts 330°
2026-04-25 09:43 2.53103 101.83942 4178 ft 205 kts 330°
2026-04-25 09:44 2.54284 101.83152 3904 ft 206 kts 329°
2026-04-25 09:44 2.55472 101.82359 3639 ft 205 kts 330°
2026-04-25 09:44 2.56669 101.81563 3354 ft 205 kts 329°
2026-04-25 09:44 2.57861 101.80770 3080 ft 205 kts 329°
2026-04-25 09:45 2.59040 101.79986 2814 ft 203 kts 329°
2026-04-25 09:45 2.60218 101.79202 2540 ft 202 kts 329°
2026-04-25 09:45 2.61385 101.78423 2279 ft 200 kts 329°
2026-04-25 09:45 2.62533 101.77660 2033 ft 196 kts 329°
2026-04-25 09:46 2.63646 101.76917 1765 ft 185 kts 328°
2026-04-25 09:46 2.64673 101.76230 1554 ft 172 kts 329°
2026-04-25 09:46 2.65655 101.75578 1319 ft 161 kts 328°
2026-04-25 09:46 2.66547 101.74983 1128 ft 149 kts 328°
2026-04-25 09:47 2.67402 101.74412 947 ft 146 kts 328°
2026-04-25 09:47 2.68246 101.73850 758 ft 146 kts 327°
2026-04-25 09:47 2.69093 101.73289 582 ft 148 kts 328°
2026-04-25 09:47 2.69969 101.72726 444 ft 147 kts 327°
2026-04-25 09:48 2.70827 101.72156 231 ft 149 kts 325°
2026-04-25 09:48 2.71686 101.71569 65 ft 148 kts 326°
2026-04-25 09:48 2.72505 101.71026 53 ft 121 kts 325°
2026-04-25 09:48 2.73026 101.70663 72 ft 74 kts 325°
2026-04-25 09:49 2.73346 101.70485 73 ft 42 kts 343°
2026-04-25 09:49 2.73550 101.70463 72 ft 17 kts
2026-04-25 09:49 2.73568 101.70463 71 ft 0 kts
2026-04-25 09:50 2.73579 101.70463 71 ft 5 kts 359°
2026-04-25 09:50 2.73649 101.70458 70 ft 19 kts 352°
2026-04-25 09:51 2.73783 101.70393 67 ft 22 kts 328°
2026-04-25 09:51 2.73930 101.70326 65 ft 21 kts 358°
2026-04-25 09:51 2.74044 101.70325 65 ft 16 kts 330°
2026-04-25 09:51 2.74143 101.70265 65 ft 16 kts 326°
2026-04-25 09:52 2.74240 101.70196 65 ft 17 kts 326°
2026-04-25 09:52 2.74343 101.70127 64 ft 18 kts 326°
2026-04-25 09:52 2.74448 101.70058 65 ft 18 kts 326°
2026-04-25 09:52 2.74554 101.69984 64 ft 19 kts 324°
2026-04-25 09:53 2.74678 101.69947 63 ft 19 kts 28°
2026-04-25 09:53 2.74754 101.70045 66 ft 17 kts 57°
2026-04-25 09:53 2.74823 101.70135 70 ft 14 kts 40°
2026-04-25 09:53 2.74881 101.70207 72 ft 12 kts 59°
2026-04-25 09:54 2.74933 101.70264 73 ft 10 kts 355°
2026-04-25 09:54 2.74989 101.70247 72 ft 2 kts 337°
2026-04-25 09:54 2.74990 101.70246 72 ft 0 kts 337°